Total_Precipitation_Accumulation
0.50 0.47 0.13 0.13 0.04 0.01 0.00 0.00 0.00 0.00 0.00 0.00 0.00 0.00 0.00 0.00 0.00 0.00 0.00 0.00 0.00 0.01 0.01 0.01 0.00 0.01 0.04 0.05 0.02 0.00 0.01 0.01 0.02 0.06 0.10 0.18 0.18 0.12 0.09 0.07 0.06 0.07 0.13
1.09 0.72 0.87 0.36 0.07 0.03 0.00 0.00 0.00 0.00 0.00 0.00 0.00 0.00 0.00 0.00 0.00 0.00 0.00 0.01 0.01 0.01 0.01 0.00 0.00 0.00 0.01 0.02 0.00 0.00 0.00 0.01 0.01 0.06 0.07 0.13 0.16 0.12 0.07 0.07 0.06 0.06 0.10
1.61 1.09 1.14 1.28 0.66 0.29 0.09 0.02 0.00 0.00 0.01 0.00 0.00 0.00 0.01 0.01 0.00 0.00 0.00 0.01 0.00 0.00 0.00 0.00 0.00 0.01 0.01 0.00 0.00 0.00 0.00 0.00 0.01 0.03 0.05 0.06 0.02 0.08 0.06 0.04 0.05 0.04 0.06
1.05 0.70 1.39 1.48 1.13 0.78 0.43 0.16 0.03 0.00 0.00 0.00 0.00 0.00 0.00 0.00 0.00 0.00 0.00 0.00 0.00 0.00 0.00 0.00 0.01 0.01 0.00 0.00 0.00 0.00 0.00 0.00 0.00 0.02 0.02 0.06 0.08 0.10 0.06 0.05 0.07 0.04 0.02
1.00 0.51 0.91 1.32 1.37 1.00 0.60 0.35 0.11 0.01 0.00 0.00 0.01 0.00 0.00 0.00 0.00 0.00 0.00 0.00 0.00 0.00 0.00 0.00 0.01 0.01 0.00 0.00 0.00 0.00 0.00 0.00 0.00 0.01 0.00 0.09 0.08 0.08 0.09 0.07 0.05 0.05 0.04
1.33 0.98 0.90 1.46 1.76 2.08 1.23 0.62 0.24 0.07 0.00 0.01 0.01 0.00 0.00 0.00 0.00 0.00 0.00 0.00 0.00 0.00 0.00 0.00 0.00 0.00 0.00 0.00 0.00 0.00 0.00 0.00 0.00 0.00 0.04 0.09 0.10 0.03 0.11 0.11 0.05 0.10 0.08
2.24 2.00 1.35 2.09 2.84 3.92 4.17 2.36 1.00 0.22 0.02 0.01 0.01 0.01 0.00 0.00 0.01 0.00 0.00 0.00 0.00 0.00 0.00 0.00 0.00 0.00 0.00 0.00 0.00 0.00 0.00 0.00 0.00 0.00 0.05 0.11 0.19 0.05 0.08 0.14 0.05 0.08 0.11
3.15 2.79 2.67 2.21 2.64 3.44 5.37 5.15 2.92 0.78 0.16 0.02 0.02 0.01 0.00 0.00 0.01 0.01 0.00 0.00 0.01 0.00 0.00 0.00 0.00 0.00 0.00 0.00 0.00 0.00 0.00 0.00 0.00 0.00 0.03 0.02 0.02 0.00 0.00 0.04 0.07 0.07 0.10
5.65 5.52 4.83 3.78 2.79 2.21 2.76 3.64 3.64 1.54 0.25 0.08 0.06 0.01 0.00 0.00 0.02 0.01 0.01 0.00 0.00 0.00 0.00 0.00 0.00 0.00 0.00 0.00 0.00 0.00 0.00 0.00 0.00 0.00 0.00 0.00 0.01 0.01 0.04 0.04 0.07 0.09 0.08
8.06 7.51 5.77 4.73 3.03 1.41 1.62 1.79 1.74 2.03 1.00 0.30 0.08 0.03 0.01 0.00 0.00 0.00 0.01 0.00 0.00 0.00 0.00 0.00 0.00 0.00 0.00 0.00 0.00 0.00 0.00 0.00 0.00 0.00 0.00 0.00 0.00 0.02 0.04 0.03 0.03 0.05 0.04
6.02 6.48 6.26 4.25 2.85 1.42 0.75 0.76 0.68 1.13 1.10 0.74 0.20 0.14 0.05 0.01 0.00 0.00 0.02 0.01 0.01 0.00 0.00 0.00 0.00 0.00 0.00 0.00 0.00 0.00 0.00 0.00 0.00 0.00 0.00 0.00 0.00 0.00 0.01 0.00 0.00 0.02 0.03
3.37 3.53 5.15 4.27 2.79 1.91 1.34 0.65 0.39 0.62 0.71 0.85 0.40 0.07 0.04 0.05 0.02 0.00 0.01 0.00 0.00 0.00 0.00 0.00 0.00 0.00 0.00 0.00 0.00 0.00 0.00 0.00 0.00 0.00 0.00 0.00 0.00 0.00 0.00 0.00 0.00 0.00 0.00
1.22 1.53 2.30 3.50 3.80 2.82 1.57 0.81 0.42 0.61 0.83 0.92 0.84 0.23 0.09 0.14 0.05 0.01 0.01 0.00 0.00 0.00 0.00 0.00 0.00 0.00 0.00 0.00 0.00 0.00 0.00 0.00 0.00 0.00 0.00 0.00 0.00 0.00 0.00 0.00 0.00 0.00 0.00
0.70 0.93 1.74 2.13 2.08 2.32 2.36 1.05 0.56 0.37 0.55 0.70 0.65 0.33 0.16 0.13 0.04 0.01 0.00 0.00 0.00 0.00 0.00 0.00 0.00 0.00 0.00 0.00 0.00 0.00 0.00 0.00 0.00 0.00 0.00 0.00 0.00 0.00 0.00 0.01 0.00 0.00 0.00
0.45 0.68 1.26 1.07 0.81 0.89 1.52 1.63 0.80 0.55 0.41 0.49 0.46 0.33 0.18 0.13 0.07 0.01 0.01 0.00 0.00 0.00 0.00 0.00 0.00 0.00 0.00 0.00 0.00 0.00 0.00 0.00 0.00 0.00 0.00 0.00 0.00 0.00 0.00 0.02 0.02 0.01 0.00
0.38 0.56 0.91 0.73 0.71 0.57 0.63 0.95 0.99 0.61 0.52 0.47 0.40 0.34 0.24 0.12 0.05 0.02 0.04 0.02 0.01 0.01 0.00 0.00 0.00 0.00 0.00 0.00 0.00 0.00 0.00 0.00 0.00 0.00 0.00 0.00 0.00 0.00 0.00 0.00 0.03 0.02 0.01
0.41 0.62 1.01 1.26 0.60 0.71 0.66 0.74 0.90 0.61 0.40 0.47 0.55 0.50 0.42 0.17 0.03 0.03 0.08 0.12 0.08 0.00 0.00 0.00 0.00 0.00 0.00 0.00 0.00 0.00 0.00 0.00 0.00 0.00 0.00 0.00 0.00 0.00 0.00 0.00 0.01 0.04 0.03
0.37 0.44 0.94 1.52 0.94 0.82 0.77 0.80 0.87 0.59 0.42 0.34 0.45 0.39 0.23 0.09 0.04 0.04 0.05 0.07 0.12 0.04 0.00 0.00 0.00 0.00 0.00 0.00 0.00 0.00 0.00 0.00 0.00 0.00 0.00 0.00 0.00 0.00 0.00 0.00 0.00 0.01 0.02
0.22 0.33 0.72 1.02 1.16 1.12 0.84 0.73 0.52 0.38 0.38 0.31 0.31 0.16 0.15 0.09 0.04 0.02 0.02 0.07 0.08 0.06 0.02 0.00 0.00 0.00 0.00 0.00 0.00 0.00 0.00 0.00 0.00 0.00 0.00 0.00 0.00 0.00 0.00 0.00 0.00 0.00 0.01
0.17 0.43 0.85 0.92 1.06 1.05 0.65 0.38 0.24 0.24 0.22 0.27 0.21 0.11 0.11 0.08 0.03 0.02 0.04 0.11 0.17 0.08 0.04 0.02 0.04 0.02 0.01 0.00 0.00 0.00 0.00 0.00 0.00 0.00 0.00 0.00 0.00 0.00 0.00 0.00 0.00 0.00 0.00
0.12 0.36 0.48 0.71 0.87 0.57 0.33 0.25 0.20 0.16 0.15 0.17 0.17 0.11 0.07 0.07 0.07 0.05 0.10 0.11 0.20 0.12 0.06 0.03 0.03 0.03 0.02 0.01 0.00 0.00 0.00 0.00 0.00 0.00 0.00 0.00 0.00 0.01 0.00 0.00 0.00 0.00 0.00
0.15 0.37 0.47 0.32 0.27 0.27 0.26 0.13 0.06 0.06 0.05 0.07 0.10 0.05 0.05 0.10 0.09 0.07 0.09 0.07 0.09 0.11 0.05 0.02 0.02 0.03 0.02 0.02 0.00 0.03 0.03 0.02 0.00 0.00 0.00 0.00 0.01 0.02 0.02 0.01 0.00 0.00 0.00
0.08 0.12 0.24 0.13 0.07 0.05 0.09 0.09 0.05 0.02 0.04 0.09 0.09 0.09 0.05 0.06 0.08 0.11 0.10 0.09 0.10 0.15 0.06 0.04 0.02 0.03 0.17 0.07 0.01 0.09 0.11 0.06 0.05 0.01 0.00 0.00 0.00 0.00 0.02 0.05 0.03 0.01 0.00
0.03 0.05 0.23 0.13 0.06 0.04 0.04 0.05 0.05 0.07 0.06 0.05 0.05 0.04 0.03 0.04 0.07 0.15 0.19 0.18 0.15 0.21 0.13 0.07 0.06 0.05 0.35 0.23 0.08 0.02 0.01 0.03 0.05 0.04 0.01 0.00 0.00 0.01 0.01 0.04 0.04 0.03 0.03
0.06 0.08 0.20 0.15 0.15 0.08 0.10 0.14 0.25 0.18 0.12 0.12 0.05 0.07 0.05 0.12 0.16 0.20 0.25 0.31 0.26 0.24 0.28 0.35 0.26 0.20 0.25 0.26 0.11 0.10 0.04 0.04 0.06 0.07 0.07 0.06 0.02 0.03 0.03 0.03 0.03 0.03 0.07
0.02 0.11 0.18 0.14 0.21 0.22 0.26 0.21 0.21 0.29 0.17 0.15 0.15 0.23 0.24 0.30 0.30 0.35 0.33 0.28 0.31 0.31 0.32 0.36 0.38 0.47 0.44 0.42 0.36 0.32 0.25 0.20 0.15 0.13 0.11 0.12 0.16 0.13 0.10 0.05 0.01 0.02 0.07